Location: Temecula
(33.4977°N, 117.1073°W)
Time: 23:24:20
(UTC-08:00)

ISS - Visible Passes

Search period start: 15 December 2017 00:00
Search period end: 25 December 2017 00:00
Orbit: 402 x 406 km, 51.6° (Epoch: 16 December)

Date Brightness Start Highest point End Pass type
(mag) Time Alt. Az. Time Alt. Az. Time Alt. Az.
15 Dec -3.6 18:15:56 10° NW 18:19:12 67° SW 18:19:57 47° SSE visible
16 Dec -3.7 17:23:45 10° NW 17:26:58 53° NE 17:30:10 10° ESE visible
16 Dec -0.4 19:02:30 10° WSW 19:03:03 10° SW 19:03:37 10° SW visible
17 Dec -1.2 18:08:24 10° WNW 18:11:01 22° SW 18:13:36 10° S visible
18 Dec -2.7 17:15:41 10° WNW 17:18:52 49° SW 17:22:02 10° SSE visible
20 Dec -0.5 17:08:21 10° W 17:10:34 17° SW 17:12:46 10° S visible
